Hourly Weather Rupin

Today, 18 April, Sunday

Time Temperature Precipitation Wind Pressure Humidity
00:00 +6°C° 0 mm 2 mps 752 mmHg 87%
01:00 +6°C° 0 mm 2 mps 752 mmHg 87%
02:00 +7°C° 0 mm 1 mps 752 mmHg 88%
03:00 +7°C° 0 mm 1 mps 752 mmHg 88%
04:00 +7°C° 0 mm 1 mps 752 mmHg 89%
05:00 +8°C° 0 mm 1 mps 753 mmHg 87%
06:00 +8°C° 0 mm 1 mps 753 mmHg 85%
07:00 +9°C° 0 mm 1 mps 753 mmHg 83%
08:00 +10°C° 0.1 mm 1 mps 753 mmHg 80%
09:00 +11°C° 0.1 mm 1 mps 753 mmHg 78%
10:00 +11°C° 0.1 mm 1 mps 753 mmHg 75%
11:00 +13°C° 0.1 mm 1 mps 753 mmHg 72%
12:00 +14°C° 0.1 mm 1 mps 753 mmHg 68%
13:00 +15°C° 0.1 mm 1 mps 753 mmHg 65%
14:00 +15°C° 0.3 mm 1 mps 752 mmHg 65%
15:00 +15°C° 0.3 mm 1 mps 752 mmHg 65%
16:00 +16°C° 0.3 mm 1 mps 752 mmHg 66%
17:00 +14°C° 0.5 mm 1 mps 752 mmHg 72%
18:00 +13°C° 0.5 mm 2 mps 752 mmHg 78%
19:00 +10°C° 0.5 mm 2 mps 752 mmHg 84%
20:00 +10°C° 0.1 mm 2 mps 752 mmHg 86%
21:00 +9°C° 0.1 mm 2 mps 752 mmHg 87%
22:00 +9°C° 0.1 mm 2 mps 752 mmHg 89%
23:00 +8°C° 0 mm 2 mps 753 mmHg 89%

Tomorrow, 19 April, Monday

Time Temperature Precipitation Wind Pressure Humidity
00:00 +7°C° 0 mm 2 mps 753 mmHg 90%
01:00 +7°C° 0 mm 3 mps 753 mmHg 91%
02:00 +7°C° 0 mm 2 mps 753 mmHg 92%
03:00 +6°C° 0 mm 2 mps 753 mmHg 93%
04:00 +6°C° 0 mm 2 mps 753 mmHg 94%
05:00 +7°C° 0 mm 3 mps 753 mmHg 89%
06:00 +8°C° 0 mm 3 mps 753 mmHg 83%
07:00 +8°C° 0 mm 4 mps 753 mmHg 77%
08:00 +11°C° 0 mm 4 mps 753 mmHg 70%
09:00 +12°C° 0 mm 4 mps 753 mmHg 63%
10:00 +13°C° 0 mm 4 mps 753 mmHg 55%
11:00 +13°C° 0 mm 3 mps 753 mmHg 56%
12:00 +13°C° 0 mm 3 mps 753 mmHg 57%
13:00 +13°C° 0 mm 3 mps 753 mmHg 58%
14:00 +13°C° 0 mm 3 mps 752 mmHg 59%
15:00 +12°C° 0 mm 4 mps 752 mmHg 60%
16:00 +12°C° 0 mm 4 mps 752 mmHg 61%
17:00 +11°C° 0.1 mm 4 mps 752 mmHg 66%
18:00 +9°C° 0.1 mm 3 mps 752 mmHg 72%
19:00 +8°C° 0.1 mm 3 mps 752 mmHg 78%
20:00 +8°C° 0 mm 3 mps 752 mmHg 77%
21:00 +7°C° 0 mm 3 mps 752 mmHg 76%
22:00 +7°C° 0 mm 2 mps 752 mmHg 75%
23:00 +7°C° 0 mm 2 mps 752 mmHg 73%

Day after tomorrow, 20 April, Tuesday

Time Temperature Precipitation Wind Pressure Humidity
00:00 +7°C° 0 mm 2 mps 752 mmHg 71%
01:00 +8°C° 0 mm 2 mps 752 mmHg 69%
02:00 +7°C° 0 mm 2 mps 751 mmHg 72%
03:00 +6°C° 0 mm 2 mps 751 mmHg 76%
04:00 +6°C° 0 mm 2 mps 751 mmHg 80%
05:00 +7°C° 0 mm 2 mps 751 mmHg 78%
06:00 +8°C° 0 mm 3 mps 751 mmHg 77%
07:00 +9°C° 0 mm 3 mps 751 mmHg 75%
08:00 +9°C° 0.2 mm 3 mps 750 mmHg 70%
09:00 +10°C° 0.2 mm 2 mps 750 mmHg 65%
10:00 +12°C° 0.2 mm 2 mps 750 mmHg 59%
11:00 +13°C° 0.2 mm 2 mps 750 mmHg 58%
12:00 +13°C° 0.2 mm 2 mps 749 mmHg 56%
13:00 +12°C° 0.2 mm 3 mps 749 mmHg 54%
14:00 +12°C° 0.1 mm 3 mps 749 mmHg 56%
15:00 +13°C° 0.1 mm 2 mps 748 mmHg 58%
16:00 +12°C° 0.1 mm 2 mps 748 mmHg 60%
17:00 +10°C° 0 mm 2 mps 748 mmHg 65%
18:00 +9°C° 0 mm 2 mps 748 mmHg 70%
19:00 +8°C° 0 mm 2 mps 748 mmHg 75%
20:00 +8°C° 0 mm 1 mps 748 mmHg 78%
21:00 +7°C° 0 mm 1 mps 748 mmHg 81%
22:00 +7°C° 0 mm 1 mps 747 mmHg 83%
23:00 +6°C° 0 mm 1 mps 747 mmHg 84%

21 April, Wednesday

Time Temperature Precipitation Wind Pressure Humidity
00:00 +6°C° 0 mm 1 mps 747 mmHg 86%
01:00 +6°C° 0 mm 1 mps 747 mmHg 87%
02:00 +5°C° 0 mm 2 mps 747 mmHg 89%
03:00 +4°C° 0 mm 2 mps 747 mmHg 90%
04:00 +4°C° 0 mm 2 mps 746 mmHg 92%
05:00 +5°C° 0 mm 2 mps 746 mmHg 86%
06:00 +5°C° 0 mm 3 mps 746 mmHg 80%
07:00 +7°C° 0 mm 3 mps 746 mmHg 74%
08:00 +9°C° 0 mm 3 mps 746 mmHg 67%
09:00 +10°C° 0 mm 3 mps 746 mmHg 61%
10:00 +12°C° 0 mm 3 mps 746 mmHg 54%
11:00 +12°C° 0.1 mm 4 mps 746 mmHg 52%
12:00 +12°C° 0.1 mm 4 mps 745 mmHg 51%
13:00 +12°C° 0.1 mm 4 mps 745 mmHg 50%
14:00 +12°C° 0.1 mm 4 mps 745 mmHg 51%
15:00 +12°C° 0.1 mm 4 mps 745 mmHg 52%
16:00 +12°C° 0.1 mm 3 mps 745 mmHg 54%
17:00 +11°C° 0.1 mm 3 mps 745 mmHg 60%
18:00 +9°C° 0.1 mm 2 mps 745 mmHg 67%
19:00 +9°C° 0.1 mm 1 mps 745 mmHg 73%
20:00 +7°C° 0 mm 2 mps 745 mmHg 77%
21:00 +7°C° 0 mm 2 mps 745 mmHg 80%
22:00 +6°C° 0 mm 2 mps 745 mmHg 83%
23:00 +6°C° 0 mm 2 mps 745 mmHg 86%

22 April, Thursday

Time Temperature Precipitation Wind Pressure Humidity
00:00 +5°C° 0 mm 2 mps 745 mmHg 89%
01:00 +4°C° 0 mm 3 mps 745 mmHg 92%
02:00 +4°C° 0.1 mm 3 mps 745 mmHg 92%
03:00 +5°C° 0.1 mm 3 mps 745 mmHg 93%
04:00 +5°C° 0.1 mm 3 mps 746 mmHg 93%
05:00 +5°C° 0 mm 3 mps 746 mmHg 89%
06:00 +5°C° 0 mm 3 mps 747 mmHg 84%
07:00 +5°C° 0 mm 4 mps 747 mmHg 79%
08:00 +6°C° 0 mm 4 mps 747 mmHg 69%
09:00 +7°C° 0 mm 4 mps 748 mmHg 59%
10:00 +8°C° 0 mm 5 mps 748 mmHg 49%
11:00 +8°C° 0 mm 5 mps 748 mmHg 47%
12:00 +9°C° 0 mm 5 mps 748 mmHg 44%
13:00 +10°C° 0 mm 6 mps 748 mmHg 42%
14:00 +9°C° 0 mm 5 mps 748 mmHg 42%
15:00 +9°C° 0 mm 5 mps 748 mmHg 42%
16:00 +10°C° 0 mm 4 mps 748 mmHg 42%
17:00 +7°C° 0 mm 4 mps 748 mmHg 50%
18:00 +7°C° 0 mm 3 mps 749 mmHg 58%
19:00 +5°C° 0 mm 2 mps 749 mmHg 67%
20:00 +4°C° 0 mm 2 mps 749 mmHg 70%
21:00 +4°C° 0 mm 2 mps 749 mmHg 74%
22:00 +3°C° 0 mm 2 mps 749 mmHg 78%
23:00 +3°C° 0 mm 2 mps 750 mmHg 80%

23 April, Friday

Time Temperature Precipitation Wind Pressure Humidity
00:00 +3°C° 0 mm 1 mps 750 mmHg 83%
01:00 +3°C° 0 mm 1 mps 750 mmHg 85%
02:00 +2°C° 0 mm 2 mps 750 mmHg 87%
03:00 +2°C° 0 mm 2 mps 751 mmHg 89%
04:00 +1°C° 0 mm 2 mps 751 mmHg 91%
05:00 +2°C° 0 mm 3 mps 751 mmHg 86%
06:00 +3°C° 0 mm 4 mps 752 mmHg 81%
07:00 +3°C° 0 mm 5 mps 752 mmHg 75%
08:00 +5°C° 0.2 mm 5 mps 753 mmHg 71%
09:00 +5°C° 0.2 mm 5 mps 753 mmHg 66%
10:00 +5°C° 0.2 mm 6 mps 753 mmHg 62%
11:00 +5°C° 0 mm 6 mps 754 mmHg 60%
12:00 +7°C° 0 mm 6 mps 754 mmHg 57%
13:00 +7°C° 0 mm 6 mps 755 mmHg 55%
14:00 +7°C° 0 mm 6 mps 755 mmHg 55%
15:00 +7°C° 0 mm 5 mps 755 mmHg 56%
16:00 +7°C° 0 mm 5 mps 756 mmHg 56%
17:00 +6°C° 0 mm 5 mps 756 mmHg 58%
18:00 +5°C° 0 mm 5 mps 756 mmHg 61%
19:00 +3°C° 0 mm 5 mps 757 mmHg 63%
20:00 +2°C° 0 mm 5 mps 757 mmHg 66%
21:00 +1°C° 0 mm 4 mps 758 mmHg 68%
22:00 0°C° 0 mm 4 mps 758 mmHg 71%
23:00 0°C° 0 mm 4 mps 758 mmHg 74%
Show more